When you browse on this site, cookies collect data to enhance your experience and personalize the content and advertising you see.
Visit our Privacy Policy to learn more. By continuing to use the site, you agree to this use of cookies and data.
  • In Austria
  • List of Countries
  • For 7 days
  • Water Temperature
  • Satellite Maps
  • Weather Map
  • News
  • Weather Widgets
  • user-avatar
    Login

    Hourly Weather Islamabad

    Today, 14 December, Friday

    Time Temperature Precipitation Wind Pressure Humidity
    00:00 +10°C° 0 mm 2 mps 721 mmHg 33%
    01:00 +9°C° 0 mm 2 mps 721 mmHg 33%
    02:00 +9°C° 0 mm 2 mps 721 mmHg 33%
    03:00 +9°C° 0 mm 2 mps 721 mmHg 33%
    04:00 +9°C° 0 mm 2 mps 721 mmHg 33%
    05:00 +9°C° 0 mm 2 mps 721 mmHg 34%
    06:00 +9°C° 0 mm 2 mps 721 mmHg 34%
    07:00 +9°C° 0 mm 2 mps 721 mmHg 34%
    08:00 +9°C° 0 mm 2 mps 722 mmHg 34%
    09:00 +13°C° 0 mm 2 mps 722 mmHg 30%
    10:00 +15°C° 0 mm 1 mps 722 mmHg 26%
    11:00 +18°C° 0 mm 1 mps 723 mmHg 22%
    12:00 +18°C° 0 mm 1 mps 722 mmHg 22%
    13:00 +18°C° 0 mm 2 mps 722 mmHg 21%
    14:00 +19°C° 0 mm 2 mps 722 mmHg 20%
    15:00 +17°C° 0 mm 2 mps 722 mmHg 23%
    16:00 +16°C° 0 mm 2 mps 721 mmHg 25%
    17:00 +14°C° 0 mm 2 mps 721 mmHg 27%
    18:00 +14°C° 0 mm 2 mps 721 mmHg 27%
    19:00 +13°C° 0 mm 2 mps 721 mmHg 27%
    20:00 +12°C° 0 mm 2 mps 722 mmHg 27%
    21:00 +12°C° 0 mm 2 mps 722 mmHg 27%
    22:00 +10°C° 0 mm 2 mps 722 mmHg 26%
    23:00 +10°C° 0 mm 2 mps 722 mmHg 26%

    Tomorrow, 15 December, Saturday

    Time Temperature Precipitation Wind Pressure Humidity
    00:00 +10°C° 0 mm 3 mps 721 mmHg 26%
    01:00 +9°C° 0 mm 3 mps 721 mmHg 25%
    02:00 +9°C° 0 mm 3 mps 721 mmHg 24%
    03:00 +9°C° 0 mm 3 mps 721 mmHg 23%
    04:00 +8°C° 0 mm 3 mps 721 mmHg 23%
    05:00 +8°C° 0 mm 3 mps 721 mmHg 22%
    06:00 +8°C° 0 mm 2 mps 721 mmHg 22%
    07:00 +8°C° 0 mm 2 mps 721 mmHg 22%
    08:00 +9°C° 0 mm 2 mps 722 mmHg 22%
    09:00 +12°C° 0 mm 2 mps 722 mmHg 19%
    10:00 +15°C° 0 mm 2 mps 722 mmHg 16%
    11:00 +18°C° 0 mm 1 mps 723 mmHg 13%
    12:00 +18°C° 0 mm 2 mps 722 mmHg 13%
    13:00 +19°C° 0 mm 2 mps 722 mmHg 13%
    14:00 +20°C° 0 mm 2 mps 722 mmHg 13%
    15:00 +18°C° 0 mm 2 mps 722 mmHg 15%
    16:00 +16°C° 0 mm 1 mps 721 mmHg 18%
    17:00 +14°C° 0 mm 1 mps 721 mmHg 21%
    18:00 +14°C° 0 mm 1 mps 721 mmHg 21%
    19:00 +13°C° 0 mm 2 mps 722 mmHg 21%
    20:00 +12°C° 0 mm 2 mps 722 mmHg 21%
    21:00 +12°C° 0 mm 2 mps 722 mmHg 21%
    22:00 +12°C° 0 mm 2 mps 722 mmHg 20%
    23:00 +10°C° 0 mm 2 mps 722 mmHg 20%

    Day after tomorrow, 16 December, Sunday

    Time Temperature Precipitation Wind Pressure Humidity
    00:00 +10°C° 0 mm 2 mps 722 mmHg 20%
    01:00 +10°C° 0 mm 3 mps 721 mmHg 20%
    02:00 +9°C° 0 mm 3 mps 721 mmHg 20%
    03:00 +9°C° 0 mm 3 mps 721 mmHg 19%
    04:00 +9°C° 0 mm 3 mps 721 mmHg 18%
    05:00 +9°C° 0 mm 3 mps 720 mmHg 18%
    06:00 +9°C° 0 mm 3 mps 721 mmHg 18%
    07:00 +9°C° 0 mm 3 mps 721 mmHg 18%
    08:00 +9°C° 0 mm 3 mps 721 mmHg 18%
    09:00 +13°C° 0 mm 2 mps 722 mmHg 16%
    10:00 +16°C° 0 mm 2 mps 722 mmHg 14%
    11:00 +19°C° 0 mm 2 mps 723 mmHg 12%
    12:00 +20°C° 0 mm 2 mps 722 mmHg 12%
    13:00 +20°C° 0 mm 2 mps 722 mmHg 12%
    14:00 +21°C° 0 mm 2 mps 722 mmHg 11%
    15:00 +19°C° 0 mm 2 mps 721 mmHg 14%
    16:00 +17°C° 0 mm 2 mps 721 mmHg 17%
    17:00 +15°C° 0 mm 1 mps 720 mmHg 20%
    18:00 +15°C° 0 mm 2 mps 720 mmHg 20%
    19:00 +14°C° 0 mm 2 mps 721 mmHg 19%
    20:00 +13°C° 0 mm 2 mps 721 mmHg 19%
    21:00 +13°C° 0 mm 2 mps 721 mmHg 19%
    22:00 +12°C° 0 mm 2 mps 721 mmHg 19%
    23:00 +12°C° 0 mm 2 mps 721 mmHg 18%

    17 December, Monday

    Time Temperature Precipitation Wind Pressure Humidity
    00:00 +12°C° 0 mm 2 mps 720 mmHg 18%
    01:00 +10°C° 0 mm 2 mps 720 mmHg 18%
    02:00 +10°C° 0 mm 3 mps 720 mmHg 18%
    03:00 +10°C° 0 mm 3 mps 720 mmHg 18%
    04:00 +10°C° 0 mm 3 mps 719 mmHg 17%
    05:00 +9°C° 0 mm 3 mps 719 mmHg 17%
    06:00 +10°C° 0 mm 2 mps 720 mmHg 17%
    07:00 +10°C° 0 mm 2 mps 720 mmHg 18%
    08:00 +10°C° 0 mm 2 mps 720 mmHg 18%
    09:00 +14°C° 0 mm 2 mps 721 mmHg 16%
    10:00 +17°C° 0 mm 2 mps 721 mmHg 14%
    11:00 +19°C° 0 mm 2 mps 722 mmHg 12%
    12:00 +20°C° 0 mm 2 mps 721 mmHg 12%
    13:00 +21°C° 0 mm 2 mps 721 mmHg 12%
    14:00 +23°C° 0 mm 2 mps 720 mmHg 11%
    15:00 +20°C° 0 mm 2 mps 720 mmHg 14%
    16:00 +18°C° 0 mm 2 mps 719 mmHg 17%
    17:00 +16°C° 0 mm 1 mps 719 mmHg 20%
    18:00 +15°C° 0 mm 1 mps 719 mmHg 20%
    19:00 +14°C° 0 mm 2 mps 719 mmHg 19%
    20:00 +13°C° 0 mm 2 mps 720 mmHg 19%
    21:00 +13°C° 0 mm 2 mps 720 mmHg 19%
    22:00 +13°C° 0 mm 2 mps 720 mmHg 18%
    23:00 +12°C° 0 mm 2 mps 720 mmHg 18%

    18 December, Tuesday

    Time Temperature Precipitation Wind Pressure Humidity
    00:00 +12°C° 0 mm 2 mps 719 mmHg 18%
    01:00 +12°C° 0 mm 2 mps 719 mmHg 18%
    02:00 +10°C° 0 mm 3 mps 719 mmHg 18%
    03:00 +10°C° 0 mm 3 mps 719 mmHg 18%
    04:00 +10°C° 0 mm 3 mps 718 mmHg 18%
    05:00 +10°C° 0 mm 3 mps 718 mmHg 18%
    06:00 +10°C° 0 mm 3 mps 718 mmHg 18%
    07:00 +10°C° 0 mm 2 mps 719 mmHg 19%
    08:00 +10°C° 0 mm 2 mps 719 mmHg 20%
    09:00 +14°C° 0 mm 2 mps 720 mmHg 17%
    10:00 +17°C° 0 mm 2 mps 720 mmHg 15%
    11:00 +20°C° 0 mm 2 mps 720 mmHg 13%
    12:00 +20°C° 0 mm 2 mps 720 mmHg 13%
    13:00 +21°C° 0 mm 2 mps 719 mmHg 12%
    14:00 +23°C° 0 mm 2 mps 719 mmHg 12%
    15:00 +20°C° 0 mm 2 mps 718 mmHg 15%
    16:00 +19°C° 0 mm 1 mps 718 mmHg 18%
    17:00 +16°C° 0 mm 1 mps 717 mmHg 21%
    18:00 +15°C° 0 mm 1 mps 718 mmHg 21%
    19:00 +14°C° 0 mm 1 mps 718 mmHg 21%
    20:00 +14°C° 0 mm 1 mps 718 mmHg 20%
    21:00 +13°C° 0 mm 2 mps 718 mmHg 20%
    22:00 +13°C° 0 mm 2 mps 718 mmHg 20%
    23:00 +13°C° 0 mm 2 mps 718 mmHg 19%

    19 December, Wednesday

    Time Temperature Precipitation Wind Pressure Humidity
    00:00 +12°C° 0 mm 2 mps 717 mmHg 19%
    01:00 +12°C° 0 mm 2 mps 717 mmHg 19%
    02:00 +12°C° 0 mm 2 mps 717 mmHg 19%
    03:00 +12°C° 0 mm 2 mps 716 mmHg 19%
    04:00 +10°C° 0 mm 2 mps 716 mmHg 18%
    05:00 +10°C° 0 mm 2 mps 716 mmHg 18%
    06:00 +12°C° 0 mm 2 mps 716 mmHg 19%
    07:00 +12°C° 0 mm 2 mps 716 mmHg 20%
    08:00 +12°C° 0 mm 2 mps 717 mmHg 21%
    09:00 +15°C° 0 mm 2 mps 717 mmHg 18%
    10:00 +17°C° 0 mm 2 mps 718 mmHg 16%
    11:00 +21°C° 0 mm 1 mps 719 mmHg 13%
    12:00 +21°C° 0 mm 2 mps 718 mmHg 13%
    13:00 +21°C° 0 mm 2 mps 718 mmHg 13%
    14:00 +23°C° 0 mm 2 mps 718 mmHg 13%
    15:00 +21°C° 0 mm 1 mps 717 mmHg 17%
    16:00 +19°C° 0 mm 1 mps 717 mmHg 20%
    17:00 +16°C° 0 mm 1 mps 716 mmHg 24%
    18:00 +15°C° 0 mm 1 mps 716 mmHg 24%
    19:00 +14°C° 0 mm 1 mps 717 mmHg 24%
    20:00 +13°C° 0 mm 1 mps 717 mmHg 25%
    21:00 +13°C° 0 mm 1 mps 717 mmHg 25%
    22:00 +13°C° 0 mm 1 mps 717 mmHg 25%
    23:00 +12°C° 0 mm 2 mps 717 mmHg 24%
    Show more